Regional Weather Roundup
Issued by NWS Binghamton, NY

Home | Current Version | Previous Version | Text Only | Print | Product List | Glossary On
Versions: 1 2 3 4 5 6 7 8 9 10 11 12 13 14 15 16 17 18 19 20 21 22 23 24 25 26 27 28 29 30 31 32 33 34 35 36 37 38 39 40 41 42 43 44 45 46 47
000
ASUS41 KBGM 310610
RWRBGM
RWRBGM
BINGHAMTON REGIONAL WEATHER ROUNDUP
NATIONAL WEATHER SERVICE BINGHAMTON NY
200 AM EDT FRI JUL 31 2015

Note: "fair" indicates few or no clouds below 12,000 feet with no
significant weather and/or obstructions to visibility.

* = Station(s) that does not report precipitation, such as rain,
snow, etc, also no thunder or fog.

!NYZ009-015>018-022>025-036-037-044>046-055>057-062-310700
...CENTRAL NEW YORK...

CITY           SKY/WX    TMP DP  RH WIND       PRES   REMARKS
BINGHAMTON     MOCLDY    65  55  70 SW6       29.91F
CORTLAND       FAIR      63  59  88 W3        29.91S
DANSVILLE      CLEAR     66  58  75 S8        29.90F
ELMIRA         CLEAR     61  58  90 CALM      29.90F
ITHACA         CLEAR     69  57  65 W7        29.90F
HORNELL          N/A     61  57  88 S5        29.95F
MONTICELLO     CLEAR     63  61  94 W5        29.92S
NORWICH        MOCLDY    61  59  94 CALM      29.89F
ONEONTA        CLEAR     64  55  72 W7        29.90F
PENN YAN       CLEAR     67  60  78 SW6       29.89F
ROME           CLEAR     63  61  93 CALM      29.85S
SIDNEY         CLEAR     63  63 100 SW3       29.89F
SYRACUSE       PTCLDY    71  61  70 SW10      29.83F
$$

!PAZ038>040-043-044-047-048-072-310700
...NORTHEAST PENNSYLVANIA...

CITY           SKY/WX    TMP DP  RH WIND       PRES   REMARKS
HAZLETON       CLEAR     64  55  72 CALM      29.97F
SCRANTON       CLEAR     64  61  90 SE3       29.91F
$$
&&
KEY
WCI = WIND CHILL INDEX
VSB = VISIBILITY
HX  = HEAT INDEX
$$


USA.gov is the U.S. government's official web portal to all federal, state and local government web resources and services.